Hourly Weather Roundup
Issued by NWS Central Illinois

Home | Current Version | Previous Version | Text Only | Print | Product List | Glossary On
Versions: 1 2 3 4 5 6 7 8 9 10 11 12 13 14 15 16 17 18 19 20 21 22 23 24 25 26 27 28 29 30 31 32 33 34 35 36 37 38 39 40 41 42 43 44 45 46 47 48 49 50
000
NZUS43 KILX 091710
HWRILX

AREA WEATHER ROUNDUP
NATIONAL WEATHER SERVICE, LINCOLN IL
1200 PM CDT WED JUL 09 2014


CITY           SKY/WX    TMP DP  RH WIND       PRES   REMARKS
BLOOMINGTON    MOSUNNY   75  55  49 NW15      30.01R
CHAMPAIGN      MOSUNNY   76  59  55 NW8       29.99S
DECATUR        MOSUNNY   80  61  52 NW10      30.00R HX  81
EFFINGHAM      MOSUNNY   81  60  48 W6        30.00S HX  82
FLORA          SUNNY     81  60  49 W10       30.00S HX  81
GALESBURG      MOSUNNY   77  58  51 W10       30.03R
JACKSONVILLE   MOSUNNY   79  62  55 NW9       30.02S HX  80
LACON          MOSUNNY   76  55  48 NW8       29.99R
LAWRENCEVILLE  MOSUNNY   84  60  44 W12       29.99F HX  84
LITCHFIELD     SUNNY     78  66  65 NW5       30.01S HX  80
$$


CITY           SKY/WX    TMP DP  RH WIND       PRES   REMARKS
LINCOLN        SUNNY     79  57  46 W6        29.97S HX  80
MACOMB         MOSUNNY   74  58  57 NW10      30.05R
MATTOON        SUNNY     81  60  48 W10       29.99R HX  82
MT CARMEL AP   MOSUNNY   84  61  45 W8        29.99F HX  84
OLNEY-NOBLE AP SUNNY     81  63  54 CALM      30.00S HX  82
PARIS          SUNNY     79  63  57 NW5       29.99S HX  80
PEORIA         SUNNY     77  55  46 NW12G18   30.00R
PONTIAC        MOSUNNY   77  57  50 NW12      29.98S
RANTOUL        SUNNY     78  56  47 W14       29.99S
ROBINSON       PTSUNNY   81  65  58 W13       29.99S HX  82
SPRINGFIELD    MOSUNNY   80  61  52 NW7       30.01R HX  81
TAYLORVILLE    MOSUNNY   77  63  61 W6        30.00S
$$

...REGIONAL REPORTS...


CITY           SKY/WX    TMP DP  RH WIND       PRES   REMARKS
CHICAGO O`HARE PTSUNNY   75  54  47 NW15      29.94S
KANKAKEE       PTSUNNY   74  59  59 NW7       29.97R
MOLINE         SUNNY     76  50  40 NW12G21   30.01R
MOUNT VERNON   MOSUNNY   82  63  51 W8        30.01F HX  83
PITTSFIELD     MOSUNNY   79  61  52 NW7       30.04S HX  80
QUINCY         SUNNY     77  55  46 NW13      30.04R
ROCKFORD       MOSUNNY   75  56  51 NW13      29.99R
$$


CITY           SKY/WX    TMP DP  RH WIND       PRES   REMARKS
BURLINGTON     MOSUNNY   75  56  51 NW7       30.03R
CEDAR RAPIDS   MOSUNNY   73  53  49 NW13      30.03S
DES MOINES     SUNNY     76  53  44 VRB5      30.06S
KIRKSVILLE     NOT AVBL
OTTUMWA        SUNNY     74  57  55 N10       30.06R
ST LOUIS       MOSUNNY   84  62  47 W6        30.02S HX  85
$$


CITY           SKY/WX    TMP DP  RH WIND       PRES   REMARKS
TERRE HAUTE    MOSUNNY   80  64  58 W12       29.98S HX  82
EVANSVILLE     MOSUNNY   82  58  43 NW6       30.00F HX  82
INDIANAPOLIS   PTSUNNY   77  59  53 W9        29.96S
LAFAYETTE      MOSUNNY   78  58  49 NW14G21   29.96R
MADISON        MOSUNNY   72  49  44 NW14G25   29.97S
MILWAUKEE      MOSUNNY   73  54  51 W9        29.94S
$$





USA.gov is the U.S. government's official web portal to all federal, state and local government web resources and services.